Weather reports worldwide

Advertisment
Pembrey Sands, United Kingdom (3605): temperature & dewpoint: 11.11.2018 03:00:00 - 17.11.2018 03:00:00 (GMT)Pembrey Sands, United Kingdom (3605): wind speed & gusts: 11.11.2018 03:00:00 - 17.11.2018 03:00:00 (GMT)Pembrey Sands, United Kingdom (3605): wind direction: 11.11.2018 03:00:00 - 17.11.2018 03:00:00 (GMT)Pembrey Sands, United Kingdom (3605): reduced air pressure: 11.11.2018 03:00:00 - 17.11.2018 03:00:00 (GMT)Pembrey Sands, United Kingdom (3605): visibility: 11.11.2018 03:00:00 - 17.11.2018 03:00:00 (GMT)Pembrey Sands, United Kingdom (3605): precipitation: 11.11.2018 03:00:00 - 17.11.2018 03:00:00 (GMT)
Date & Time tt [°C] td [°C] ff [km/h] ff [kn] fx [km/h] fx [kn] dd ppp [hPa] vv [km] rr [mm]
17.11.2018 03:00:00 10,6 8,9 21 11 - - ESE 1023,5 13 0,0
17.11.2018 02:00:00 10,7 9,1 15 8 - - E 1023,6 13 0,0
17.11.2018 01:00:00 10,8 9,4 24 13 46 25 ESE 1023,0 10 0,0
17.11.2018 00:00:00 11,2 9,7 29 16 57 31 ESE 1022,9 9 0,0
16.11.2018 23:00:00 11,6 10,1 26 14 - - ESE 1022,9 9 0,0
16.11.2018 22:00:00 12,1 10,6 26 14 46 25 SE 1023,0 7 0,0
16.11.2018 21:00:00 12,3 10,9 24 13 - - ESE 1022,6 6 0,0
16.11.2018 20:00:00 12,5 11,0 15 8 - - SE 1022,8 7 0,0
16.11.2018 19:00:00 13,0 11,3 15 8 - - ESE 1022,7 8 0,0
16.11.2018 18:00:00 13,1 11,4 16 9 - - ESE 1022,7 9 0,0
16.11.2018 17:00:00 13,4 11,7 18 10 - - ESE 1022,6 7 0,0
16.11.2018 16:00:00 13,6 11,9 18 10 - - ESE 1022,3 7 0,0
16.11.2018 15:00:00 13,9 12,0 16 9 - - ESE 1022,2 8 0,0
16.11.2018 14:00:00 14,1 11,9 21 11 - - ESE 1022,4 9 0,0
16.11.2018 13:00:00 14,4 11,9 21 11 - - ESE 1022,3 10 0,0
16.11.2018 12:00:00 14,1 11,7 21 11 - - ESE 1022,6 10 0,0
16.11.2018 11:00:00 14,1 11,7 18 10 - - ESE 1022,8 12 0,0
16.11.2018 10:00:00 13,4 11,7 9 5 - - ESE 1022,9 11 0,0
16.11.2018 09:00:00 12,9 11,6 16 9 - - ESE 1022,6 11 0,0
16.11.2018 08:00:00 12,6 11,4 16 9 - - ESE 1022,2 13 0,0
16.11.2018 07:00:00 12,4 11,4 13 7 - - ESE 1022,0 12 0,0
16.11.2018 06:00:00 12,4 11,5 13 7 - - ESE 1021,3 12 0,0
16.11.2018 05:00:00 12,4 11,6 13 7 - - ESE 1020,8 13 0,0
16.11.2018 04:00:00 12,4 11,7 13 7 - - SE 1020,8 12 0,0
16.11.2018 03:00:00 12,3 11,8 11 6 - - SE 1020,4 11 0,0
16.11.2018 02:00:00 12,4 11,9 13 7 - - ESE 1020,2 9 0,0
16.11.2018 01:00:00 12,4 11,9 9 5 - - ESE 1020,3 9 0,0
16.11.2018 00:00:00 12,3 11,8 8 4 - - SE 1020,6 5 0,0
15.11.2018 23:00:00 12,2 11,7 9 5 - - SSE 1019,8 5 0,0
15.11.2018 22:00:00 12,3 11,8 16 9 - - S 1019,5 2,3 0,0
15.11.2018 21:00:00 12,2 11,7 18 10 - - S 1019,1 2,6 0,0
15.11.2018 20:00:00 12,1 11,5 22 12 - - SW 1018,7 1,8 0,2
15.11.2018 19:00:00 12,3 11,6 26 14 - - SSW 1018,0 3,3 0,2
15.11.2018 18:00:00 13,5 11,8 21 11 - - SSE 1017,5 10 0,0
15.11.2018 17:00:00 13,5 11,2 16 9 - - SE 1017,3 16 0,0
15.11.2018 16:00:00 13,4 10,7 15 8 - - ESE 1016,8 20 0,0
15.11.2018 15:00:00 13,5 10,4 24 13 - - ESE 1016,8 19 0,0
15.11.2018 14:00:00 13,7 10,0 26 14 46 25 ESE 1016,7 19 0,0
15.11.2018 13:00:00 13,8 10,0 26 14 46 25 ESE 1016,8 18 0,0
15.11.2018 12:00:00 13,3 10,0 28 15 50 27 ESE 1017,0 21 0,0
15.11.2018 11:00:00 12,9 9,6 28 15 - - SE 1017,1 28 0,0
15.11.2018 10:00:00 12,6 9,7 26 14 - - ESE 1017,0 25 0,0
15.11.2018 09:00:00 11,2 9,2 22 12 - - ESE 1017,2 22 0,0
15.11.2018 08:00:00 10,4 9,0 21 11 - - ESE 1017,2 19 0,0
15.11.2018 07:00:00 10,0 8,5 18 10 - - ESE 1016,9 20 0,0
15.11.2018 06:00:00 9,8 8,2 21 11 - - ESE 1016,9 22 0,0
15.11.2018 05:00:00 9,7 8,0 16 9 - - ESE 1017,1 26 0,0
15.11.2018 04:00:00 10,6 8,6 16 9 - - ESE 1017,3 30 0,0
15.11.2018 03:00:00 10,4 8,4 13 7 - - ESE 1017,5 27 0,0
15.11.2018 02:00:00 10,3 8,5 13 7 - - ESE 1017,7 29 0,0
15.11.2018 01:00:00 11,2 8,7 21 11 - - SSE 1017,7 30 0,0
15.11.2018 00:00:00 11,3 8,5 22 12 - - SE 1017,8 35 0,0
14.11.2018 23:00:00 11,5 8,6 28 15 - - SE 1017,8 21 0,0
14.11.2018 22:00:00 11,4 8,8 22 12 - - SSE 1018,3 9 0,0
14.11.2018 21:00:00 11,7 8,7 21 11 - - SSE 1018,2 12 0,0
14.11.2018 20:00:00 11,9 9,0 26 14 - - SSE 1018,4 8 0,0
14.11.2018 19:00:00 11,7 8,9 28 15 - - SSE 1018,1 9 0,0
14.11.2018 18:00:00 12,2 9,2 28 15 - - SSE 1017,7 9 0,0
14.11.2018 17:00:00 12,3 9,3 24 13 - - SSE 1017,3 22 0,0
14.11.2018 16:00:00 12,8 10,2 28 15 - - S 1017,3 6 0,0
14.11.2018 15:00:00 13,6 10,5 28 15 52 28 S 1017,6 9 0,0
14.11.2018 14:00:00 14,0 10,3 37 20 52 28 S 1017,8 10 0,0
14.11.2018 13:00:00 13,9 10,3 41 22 50 27 S 1018,1 9 0,0
14.11.2018 12:00:00 13,7 10,0 44 24 57 31 S 1018,3 9 0,0
14.11.2018 11:00:00 13,5 10,3 44 24 59 32 S 1018,5 7 0,0
14.11.2018 10:00:00 13,0 10,3 44 24 57 31 S 1018,8 6 0,0
14.11.2018 09:00:00 13,0 10,0 50 27 67 36 S 1018,3 8 0,0
14.11.2018 08:00:00 13,1 10,5 48 26 57 31 S 1018,0 10 0,0
14.11.2018 07:00:00 13,0 10,5 48 26 59 32 SSW 1017,8 8 0,0
14.11.2018 06:00:00 13,0 10,7 48 26 63 34 S 1017,7 10 0,0
14.11.2018 05:00:00 12,6 10,8 52 28 67 36 SSW 1017,6 8 0,0
14.11.2018 04:00:00 12,9 10,4 54 29 72 39 SSW 1017,7 11 0,2
14.11.2018 03:00:00 12,4 10,2 57 31 72 39 S 1018,1 13 0,6
14.11.2018 02:00:00 12,2 10,2 52 28 72 39 S 1018,7 4,9 0,8
14.11.2018 01:00:00 12,4 10,0 55 30 72 39 S 1019,3 5 0,0
14.11.2018 00:00:00 12,7 9,9 54 29 67 36 S 1019,7 10 0,0
13.11.2018 23:00:00 12,7 9,7 52 28 63 34 S 1019,9 12 0,0
13.11.2018 22:00:00 12,8 9,9 48 26 59 32 S 1020,2 11 0,0
13.11.2018 21:00:00 12,7 10,4 42 23 54 29 S 1020,3 9 0,0
13.11.2018 20:00:00 12,6 10,3 42 23 55 30 S 1020,8 10 0,0
13.11.2018 19:00:00 12,7 10,3 42 23 54 29 S 1020,9 12 0,0
13.11.2018 18:00:00 12,7 10,1 41 22 50 27 SSW 1021,2 13 0,0
13.11.2018 17:00:00 12,5 9,8 42 23 52 28 SSW 1021,1 14 0,0
13.11.2018 16:00:00 12,5 9,8 37 20 48 26 SSW 1020,7 13 0,0
13.11.2018 15:00:00 12,7 9,7 35 19 46 25 SSW 1020,8 15 0,0
13.11.2018 14:00:00 13,0 9,9 35 19 - - SSW 1020,6 16 0,0
13.11.2018 13:00:00 13,1 9,2 35 19 - - SSW 1020,8 15 0,0
13.11.2018 12:00:00 12,7 9,5 34 18 - - SW 1020,6 11 0,0
13.11.2018 11:00:00 12,6 9,0 34 18 - - SW 1020,5 9 0,0
13.11.2018 10:00:00 12,3 9,0 31 17 - - WSW 1019,8 9 0,0
13.11.2018 09:00:00 10,7 8,6 18 10 - - W 1019,1 5 0,0
13.11.2018 08:00:00 11,1 8,3 34 18 - - W 1017,8 12 0,0
13.11.2018 07:00:00 10,6 8,3 26 14 - - W 1016,9 10 0,0
13.11.2018 06:00:00 10,7 8,4 26 14 - - W 1015,8 10 0,2
13.11.2018 05:00:00 10,1 7,7 26 14 - - W 1014,8 17 0,2
13.11.2018 04:00:00 10,4 8,0 26 14 48 26 W 1013,7 12 0,0
13.11.2018 03:00:00 11,2 8,3 34 18 55 30 W 1013,0 17 0,0
13.11.2018 02:00:00 11,1 7,3 42 23 59 32 W 1012,0 21 0,0
13.11.2018 01:00:00 11,6 8,0 42 23 61 33 W 1011,1 15 0,0
13.11.2018 00:00:00 11,7 8,0 50 27 68 37 WSW 1010,1 12 0,0
12.11.2018 23:00:00 11,7 8,3 55 30 68 37 WSW 1009,1 10 0,0
12.11.2018 22:00:00 11,5 7,8 52 28 63 34 WSW 1008,3 9 0,2
12.11.2018 21:00:00 10,4 7,9 44 24 65 35 SW 1007,8 10 1,2
12.11.2018 20:00:00 10,4 7,4 59 32 80 43 WSW 1007,5 2,2 0,2
12.11.2018 19:00:00 11,0 8,5 48 26 78 42 WSW 1006,8 6 0,2
12.11.2018 18:00:00 11,3 7,9 54 29 68 37 SSW 1006,2 13 0,2
12.11.2018 17:00:00 10,2 8,2 57 31 91 49 SSW 1005,9 4,9 0,6
12.11.2018 16:00:00 12,4 8,2 59 32 70 38 SSW 1005,5 15 0,0
12.11.2018 15:00:00 12,2 8,6 57 31 68 37 SSW 1005,2 15 0,0
12.11.2018 14:00:00 12,7 8,8 50 27 67 36 SSW 1004,9 14 0,0
12.11.2018 13:00:00 12,0 8,5 57 31 68 37 SSW 1004,7 10 0,0
12.11.2018 12:00:00 12,7 8,9 57 31 76 41 SSW 1004,9 11 0,2
12.11.2018 11:00:00 12,3 9,0 48 26 68 37 SSW 1004,8 6 0,0
12.11.2018 10:00:00 12,2 8,7 55 30 68 37 SSW 1004,5 9 0,0
12.11.2018 09:00:00 12,4 8,8 54 29 67 36 SSW 1004,3 8 0,0
12.11.2018 08:00:00 12,2 9,2 44 24 63 34 SSW 1003,6 8 0,0
12.11.2018 07:00:00 11,3 9,5 52 28 74 40 SW 1003,1 5 0,6
12.11.2018 06:00:00 11,3 9,4 39 21 87 47 SSW 1002,9 9 1,2
12.11.2018 05:00:00 11,5 8,1 52 28 65 35 SSW 1002,5 10 0,0
12.11.2018 04:00:00 11,6 8,7 42 23 61 33 SSW 1002,2 11 0,0
12.11.2018 03:00:00 11,8 9,3 46 25 63 34 SSW 1002,2 12 4,4
12.11.2018 02:00:00 10,3 8,3 48 26 67 36 SSW 1002,0 1,5 2,6
12.11.2018 01:00:00 12,2 9,7 39 21 54 29 SSW 1001,5 8 0,0
12.11.2018 00:00:00 12,5 9,1 44 24 57 31 SSW 1001,3 11 0,0
11.11.2018 23:00:00 12,5 9,5 44 24 59 32 SSW 1001,4 9 0,0
11.11.2018 22:00:00 12,5 9,1 48 26 65 35 SSW 1001,0 9 0,0
11.11.2018 21:00:00 12,3 9,1 44 24 70 38 SSW 1000,7 8 0,0
11.11.2018 20:00:00 11,9 9,3 48 26 72 39 SSW 1000,2 8 1,6
11.11.2018 19:00:00 12,5 8,7 50 27 67 36 SSW 999,8 10 0,0
11.11.2018 18:00:00 12,6 8,6 54 29 65 35 SSW 999,0 13 0,0
11.11.2018 17:00:00 12,4 9,1 52 28 65 35 SSW 998,6 10 0,2
11.11.2018 16:00:00 12,5 8,0 46 25 57 31 SSW 998,0 15 0,0
11.11.2018 15:00:00 12,8 7,5 48 26 57 31 SW 997,6 16 0,0
11.11.2018 14:00:00 12,9 8,2 46 25 55 30 SW 997,4 15 0,0
11.11.2018 13:00:00 12,6 8,2 44 24 61 33 SW 996,8 13 0,0
11.11.2018 12:00:00 12,1 7,7 41 22 54 29 SW 996,1 16 0,0
11.11.2018 11:00:00 12,2 7,8 46 25 57 31 SW 995,4 12 0,6
11.11.2018 10:00:00 11,5 7,7 42 23 55 30 WSW 994,7 3,1 1,0
11.11.2018 09:00:00 11,1 7,4 35 19 50 27 WSW 993,6 11 0,0
11.11.2018 08:00:00 10,5 8,0 34 18 - - W 992,3 12 0,0
11.11.2018 07:00:00 9,7 8,2 39 21 46 25 WSW 990,9 11 1,8
11.11.2018 06:00:00 9,2 8,1 28 15 59 32 W 990,1 5 2,6
11.11.2018 05:00:00 10,1 8,5 42 23 57 31 S 988,9 3,6 0,6
11.11.2018 04:00:00 9,9 8,3 42 23 61 33 S 989,3 3,5 2,0
11.11.2018 03:00:00 10,7 9,2 31 17 48 26 SSE 989,6 8 0,0

tt = temperature
td = dewpoint
ff = wind speed
fx = gusts
dd = wind direction
ppp = reduced air pressure
vv = visibility
rr = precipitation

Next stations